AO-07 1 07530U 74089B 25163.53120676 -.00000041 00000-0 35142-4 0 9995 2 07530 101.9925 167.8265 0012584 115.7308 2.6922 12.53689618314439 UO-11 1 14781U 84021B 25163.82584368 .00001067 00000-0 11804-3 0 9998 2 14781 97.7544 130.1298 0007106 337.3169 22.7733 14.89397293223128 AO-27 1 22825U 93061C 25163.78425251 .00000108 00000-0 58447-4 0 9990 2 22825 98.7363 225.3558 0009545 102.5849 257.6401 14.30800573654448 FO-29 1 24278U 96046B 25163.56161397 -.00000027 00000-0 10345-4 0 9990 2 24278 98.5756 57.0608 0349512 335.0649 23.3950 13.53249229423422 NOAA-15 1 25338U 98030A 25163.82654228 .00000215 00000-0 10605-3 0 9998 2 25338 98.5345 188.8796 0010047 357.2432 2.8692 14.26981475408862 GO-32 1 25397U 98043D 25163.57205680 .00000049 00000-0 41136-4 0 9992 2 25397 98.9701 142.7534 0001315 151.8788 208.2462 14.24315861398937 ISS 1 25544U 98067A 25163.90727126 .00008380 00000-0 15384-3 0 9994 2 25544 51.6380 328.2813 0001336 220.2009 294.2654 15.50147603514497 NO-44 1 26931U 01043C 25163.57975719 .00000124 00000-0 77381-4 0 9993 2 26931 67.0498 120.0837 0006051 276.0706 83.9706 14.31735945237690 SO-50 1 27607U 02058C 25163.11757447 .00000680 00000-0 10268-3 0 9994 2 27607 64.5514 192.7024 0056699 333.4575 26.3629 14.81628616209810 CO-55 1 27844U 03031E 25163.56063731 .00000262 00000-0 13293-3 0 9991 2 27844 98.6752 171.7955 0009764 171.5312 188.6034 14.23998784139092 CO-57 1 27848U 03031J 25163.44013611 .00000232 00000-0 12147-3 0 9998 2 27848 98.6780 171.6800 0009251 189.1407 170.9604 14.23333068138821 RS-22 1 27939U 03042A 25163.87894255 .00000883 00000-0 14783-3 0 9999 2 27939 98.3282 333.4100 0011467 6.4078 131.6229 14.72362137161314 CO-58 1 28895U 05043F 25163.37505930 .00001237 00000-0 20974-3 0 9991 2 28895 98.2503 307.7600 0013307 300.5824 59.4068 14.71023074 47585 CO-65 1 32785U 08021C 25163.53170202 .00004612 00000-0 33399-3 0 9996 2 32785 97.7852 134.7158 0009294 194.0446 166.0523 15.04455110929599 CO-66 1 32791U 08021J 25162.87791460 .00008948 00000-0 43382-3 0 9993 2 32791 97.7272 142.9696 0004964 137.6945 222.4672 15.18751733930843 RS-30 1 32953U 08025A 25163.86261021 .00000040 00000-0 21226-3 0 9990 2 32953 82.5029 225.1360 0019925 42.2628 317.9983 12.43165120773944 NOAA-19 1 33591U 09005A 25163.81419388 .00000199 00000-0 12988-3 0 9994 2 33591 98.9971 228.5369 0013575 359.5099 0.6058 14.13375842842564 SRMSAT 1 37841U 11058D 25163.22341045 .00000394 00000-0 70306-4 0 9992 2 37841 19.9704 138.5495 0011970 94.1714 23.4652 14.11437004705700 ZACUBE-1 1 39417U 13066B 25163.86222172 .00004029 00000-0 35104-3 0 9998 2 39417 97.7802 120.8576 0045247 42.4067 318.0637 14.96674930625407 Delfi-N3xt 1 39428U 13066N 25163.18322701 .00007060 00000-0 71796-3 0 9999 2 39428 97.8356 80.8041 0084700 353.3246 6.6835 14.88420337619646 GOMX-1 1 39430U 13066Q 25163.89489837 .00001564 00000-0 24889-3 0 9998 2 39430 97.6832 22.3564 0132334 181.1978 178.8930 14.67647324615898 LO-74 1 39440U 13066AA 25163.83401736 .00002228 00000-0 22905-3 0 9990 2 39440 97.8499 108.3718 0062240 167.8831 192.3901 14.89948896623129 AO-73 1 39444U 13066AE 25163.81054549 .00006483 00000-0 48483-3 0 9994 2 39444 97.7839 125.7377 0042965 19.4978 340.7878 15.02376517624663 DTUSAT-2 1 40030U 14033W 25163.87361818 .00006420 00000-0 41780-3 0 9992 2 40030 98.0547 135.8508 0010515 55.1399 305.0815 15.08296682597400 EO-80 1 40032U 14033Y 25163.49569053 .00005137 00000-0 33468-3 0 9991 2 40032 98.0432 135.1060 0008507 3.7187 356.4101 15.08378215597336 LILACSAT-2 1 40908U 15049K 25163.86062296 .00011104 00000-0 28939-3 0 9997 2 40908 97.5047 184.2856 0010571 140.6910 219.5104 15.38976957538732 IO-86 1 40931U 15052B 25151.18580175 .00001241 00000-0 78118-4 0 9996 2 40931 6.0006 24.0987 0012733 338.8432 21.1169 14.78805930523047 Horyu-4 1 41340U 16012D 25163.52975313 .00020481 00000-0 54449-3 0 9998 2 41340 30.9960 112.0977 0005765 88.8097 271.3209 15.36986346513241 Lapan A3 1 41603U 16040E 25163.83633381 .00002715 00000-0 96266-4 0 9995 2 41603 97.1363 168.3159 0009113 255.3074 104.7158 15.29875794498282 CAS-2T 1 41847U 16066G 25163.17759829 .00001462 00000-0 21591-3 0 9992 2 41847 98.4201 237.6178 0346429 170.4651 190.3347 14.43485934451390 CAS-4B 1 42759U 17034B 25163.85339818 .00068121 00000-0 69944-3 0 9997 2 42759 43.0077 302.3675 0021491 311.6620 48.2405 15.63731000443114 CAS-4A 1 42761U 17034D 25163.82002401 .00072697 00000-0 70735-3 0 9995 2 42761 43.0115 299.6865 0022686 315.7068 44.1982 15.65023003443133 TechnoSat 1 42829U 17042E 25163.50898614 .00001705 00000-0 13523-3 0 9997 2 42829 97.3886 332.0843 0013599 263.9293 96.0383 15.01724706431169 AO-91 1 43017U 17073E 25163.12027789 .00007168 00000-0 36701-3 0 9998 2 43017 97.5252 33.8283 0173052 157.5973 203.2931 15.04746210409596 S-Net D 1 43186U 18014G 25163.67576686 .00004478 00000-0 26550-3 0 9998 2 43186 97.5627 66.5509 0008206 204.7923 155.2914 15.11852135402841 S-Net B 1 43187U 18014H 25163.68120117 .00004391 00000-0 26052-3 0 9995 2 43187 97.5633 66.5282 0009026 200.6436 159.4431 15.11831365402844 S-Net A 1 43188U 18014J 25163.21283830 .00004395 00000-0 26061-3 0 9991 2 43188 97.5642 66.2150 0008841 202.9909 157.0926 15.11852871402770 S-Net C 1 43189U 18014K 25163.15410579 .00004178 00000-0 24810-3 0 9996 2 43189 97.5657 66.1716 0010563 196.6261 163.4624 15.11822512401312 Ten-Koh 1 43677U 18084G 25163.46315347 .00001793 00000-0 14712-3 0 9996 2 43677 98.0861 335.8333 0005482 246.1561 113.9088 15.00587284360675 PO-101 1 43678U 18084H 25163.86089597 .00000979 00000-0 87501-4 0 9998 2 43678 98.1041 340.1111 0006989 281.3619 78.6817 14.98350978360871 QO-100 1 43700U 18090A 25163.77822691 .00000161 00000-0 00000+0 0 9998 2 43700 0.0173 326.0410 0002260 146.0907 95.1878 1.00269381 24217 MinXSS-2 1 43758U 18099A 25163.87162991 .00015567 00000-0 60972-3 0 9995 2 43758 97.5016 229.9164 0013094 140.3712 219.8485 15.25805389357474 AO-95 1 43770U 18099N 25163.88031546 .00008077 00000-0 40818-3 0 9996 2 43770 97.4910 221.9292 0010496 191.5338 168.5657 15.17281370357053 RANGE-A 1 43773U 18099R 25162.85504870 .00003058 00000-0 19650-3 0 9994 2 43773 97.4478 211.1908 0011543 175.1393 184.9951 15.09106619356560 MOVE-II 1 43780U 18099Y 25163.44792913 .00318313 00000-0 18093-2 0 9997 2 43780 97.4656 239.2980 0005708 194.4912 165.6192 15.78103209358253 SNUSat 2 1 43782U 18099AA 25163.38123819 .00006419 00000-0 34993-3 0 9994 2 43782 97.4589 218.1642 0013297 139.4379 220.7847 15.14649898356920 SnugLite 1 43784U 18099AC 25162.65711440 .00005751 00000-0 28938-3 0 9998 2 43784 97.4406 217.0183 0004868 133.8942 226.2694 15.17594102356950 ITASat 1 1 43786U 18099AE 25163.19134548 .00004942 00000-0 28327-3 0 9991 2 43786 97.4559 217.4806 0014167 190.5943 169.4992 15.12956681356858 EAGLET 1 1 43790U 18099AJ 25163.40169516 .00003273 00000-0 21020-3 0 9992 2 43790 97.4760 217.6341 0012378 171.8295 188.3138 15.09074556356497 ESEO 1 43792U 18099AL 25163.19868216 .00001619 00000-0 12564-3 0 9998 2 43792 97.4492 210.6636 0013975 148.1372 212.0702 15.02633727356214 CSIM 1 43793U 18099AM 25163.24801363 .00280806 00000-0 17161-2 0 9999 2 43793 97.4795 241.3393 0005110 177.1954 182.9341 15.76560918358063 JO-97 1 43803U 18099AX 25163.15046403 .00008361 00000-0 38104-3 0 9992 2 43803 97.4658 222.2034 0008992 130.5834 229.6185 15.20877947357161 Suomi 100 1 43804U 18099AY 25163.43262534 .00009298 00000-0 45362-3 0 9993 2 43804 97.4724 221.7712 0013773 134.2086 226.0281 15.18435231357134 ISAT 1 43879U 18111D 25163.50337022 .00017732 00000-0 61201-3 0 9995 2 43879 97.5962 77.9610 0008783 173.1523 186.9839 15.29993384352129 UWE-4 1 43880U 18111E 25163.75352823 .00012632 00000-0 49332-3 0 9995 2 43880 97.5909 76.6736 0011434 189.4809 170.6215 15.25974422352116 Sparrow 1 43881U 18111F 25163.74439344 .00017709 00000-0 58854-3 0 9998 2 43881 97.6109 81.0972 0005514 209.7031 150.3898 15.31242541352273 Prox-1 1 44339U 19036A 25163.85422284 .00010285 00000-0 12940-2 0 9998 2 44339 23.9982 40.2866 0007172 110.6015 249.5252 14.80019932318597 SONATE 1 44400U 19038Q 25163.65071924 .00363023 55471-4 85759-3 0 9994 2 44400 97.6829 191.1177 0008164 198.9972 161.1000 15.96734095330066 Taurus 1 1 44530U 19059C 25163.86628988 .00005149 00000-0 95076-3 0 9991 2 44530 98.6079 303.4145 0009371 34.7967 325.3847 14.65881279304429 Duchifat 3 1 44854U 19089C 25163.85216532 .00041628 00000-0 80461-3 0 9994 2 44854 36.9442 334.3883 0004713 334.5791 25.4733 15.46802805303452 TO-108 1 44881U 19093C 25163.86025349 .00000820 00000-0 10080-3 0 9993 2 44881 97.7925 239.4413 0012925 215.8825 144.1523 14.85607352296561 FloripaSat 1 1 44885U 19093G 25163.81985839 .00004046 00000-0 34294-3 0 9998 2 44885 97.8169 251.4275 0010126 189.5065 170.5968 14.98502845297236 RS-44 1 44909U 19096E 25163.52466193 .00000037 00000-0 11120-3 0 9992 2 44909 82.5215 225.3217 0216290 288.8029 68.9721 12.79741007255115 UPMSat 2 1 46276U 20061E 25163.23761121 .00070757 00000-0 61085-3 0 9993 2 46276 97.2438 237.7085 0002115 161.5527 198.5812 15.69019523265882 SALSAT 1 46495U 20068K 25163.90155972 .00005944 00000-0 25724-3 0 9994 2 46495 97.8603 142.0833 0012397 143.6859 216.5220 15.22778414259030 CubeSX-Sirius-HSE 1 47951U 21022V 25157.62701764 .07883385 25648-5 89537-3 0 9993 2 47951 97.4004 72.1904 0010275 223.9924 136.0557 16.36879307233400 CubeSX-HSE 1 47952U 21022W 25157.69972699 .06655353 25454-5 93288-3 0 9992 2 47952 97.3980 72.5414 0010307 219.3637 140.6911 16.34906352233436 GRBAlpha 1 47959U 21022AD 25160.45426454 .07979523 25524-5 90936-3 0 9994 2 47959 97.3889 75.6219 0010935 224.3674 135.6748 16.36820468232696 TUBIN 1 48900U 21059X 25163.80152977 .00044018 00000-0 52766-3 0 9990 2 48900 97.6747 333.2895 0003585 203.6003 156.5089 15.60810635220543 LEDSAT 1 49069U 21073D 25163.76829998 .00068744 00000-0 80891-3 0 9994 2 49069 97.3893 245.4389 0009191 74.1671 286.0598 15.61149315211930 CUTE 1 49263U 21088D 25162.16955597 .00014302 00000-0 28543-3 0 9991 2 49263 97.4534 238.4709 0007464 226.8323 133.2304 15.46929039204671 TeikyoSat 4 1 49396U 21102B 25163.53780021 .00001577 00000-0 10726-3 0 9999 2 49396 97.4096 201.8597 0013988 119.9169 240.3451 15.07651274196996 Z-Sat 1 49399U 21102E 25163.85632930 .00004298 00000-0 23628-3 0 9990 2 49399 97.3790 205.2822 0019853 93.1969 267.1535 15.14436064197476 KOSEN 1 1 49402U 21102H 25163.69843667 .00005685 00000-0 26350-3 0 9994 2 49402 97.3695 208.5676 0017430 71.3356 288.9770 15.20328729197764 HO-113 1 50466U 21131B 25163.88592212 .00000453 00000-0 15516-3 0 9996 2 50466 98.5104 253.2224 0005340 120.1296 240.0423 14.40818195181920 Foresail-1 1 52766U 22057AL 25163.35493133 .00528098 12699-3 95552-3 0 9991 2 52766 97.6049 315.8433 0009496 249.9271 110.0985 16.01471973170340 SNUGLITE 2 1 52899U 22065F 25163.36221866 .00000919 00000-0 18750-3 0 9992 2 52899 98.1691 305.3083 0008936 103.5867 256.6331 14.63219697156890 UmKA 1 (RS40S) 1 57172U 23091G 25163.84240045 .00005026 00000-0 26925-3 0 9991 2 57172 97.5574 219.2071 0013277 328.7045 31.3396 15.15389495107971 CubeBel-2 (EU11S) 1 57175U 23091K 25163.86366875 .00008775 00000-0 41725-3 0 9995 2 57175 97.5573 220.3944 0011071 337.8569 22.2185 15.19380747108057 VERONIKA 1 58261U 23174F 25163.83417757 .00150374 00000-0 11706-2 0 9995 2 58261 97.4118 250.2046 0000817 44.8620 315.2708 15.71273731 89193 ENSO 1 58470U 23185J 25163.85285043 .00051836 00000-0 73761-3 0 9995 2 58470 97.3732 239.0765 0007264 81.1638 279.0439 15.56175669 85542 EIRSAT-1 1 58472U 23185L 25163.83610468 .00104291 00000-0 92982-3 0 9998 2 58472 97.3686 241.0178 0004265 95.4513 264.7235 15.68108805 85671 SONATE-2 1 59112U 24043Q 25163.81758688 .00015570 00000-0 44711-3 0 9997 2 59112 97.5149 295.0598 0012301 103.5627 256.6988 15.35859689 70835 MO-122 1 60209U 24125G 25163.04970697 .00013530 00000-0 38331-3 0 9993 2 60209 97.2783 14.6406 0020244 126.3602 233.9515 15.36175939 52338 GRBBeta 1 60237U 24128C 25163.46427828 .00004020 00000-0 30695-3 0 9995 2 60237 61.9926 69.5021 0052218 58.2031 302.4130 15.02655166 50637 Curium One 1 60242U 24128H 25163.42963493 .00007105 00000-0 49584-3 0 9994 2 60242 61.9826 67.8745 0052191 54.3146 306.2787 15.05146244 50668 ROBUSTA-3A 1 60243U 24128J 25163.43318750 .00007060 00000-0 49970-3 0 9995 2 60243 61.9896 68.6997 0050982 51.9727 308.5950 15.04677916 50658 CatSat 1 60246U 24125J 25163.56860549 .00009511 00000-0 31625-3 0 9998 2 60246 97.2578 14.3342 0044160 84.2008 276.4265 15.30420444 50444 HYPERVIEW-1G (RS66S) 1 61772U 24199AP 25163.86917606 .00018720 00000-0 54095-3 0 9992 2 61772 97.3526 32.7207 0013954 173.1950 186.9486 15.35596757 77465 AO-123 1 61781U 24199AY 25163.85355152 .00007181 00000-0 26147-3 0 9999 2 61781 97.3540 31.5580 0015771 179.7813 180.3437 15.28401032 77389 ZIMSAT 2 1 61783U 24199BA 25163.91029593 .00034884 00000-0 84641-3 0 9998 2 61783 97.3504 33.3998 0014060 169.4153 190.7392 15.40859206 80661 HADES-R (SO-124) 1 62690U 25009CK 25162.70389282 .00024345 00000-0 85820-3 0 9998 2 62690 97.4101 243.5002 0004096 104.2702 255.8993 15.29260670 22472 HYDRA-T 1 62692U 25009CM 25162.75442860 .00023865 00000-0 83478-3 0 9990 2 62692 97.4104 243.5850 0003829 100.9661 259.2010 15.29518940 22483 JINJUSat 1B 1 63210U 25052A 25163.42497722 .00009543 00000-0 43704-3 0 9992 2 63210 97.4419 57.5124 0003086 339.2428 20.8682 15.20698530 13683 NUSHSAT 1 1 63211U 25052B 25163.68264716 .00010633 00000-0 48317-3 0 9993 2 63211 97.4407 57.7685 0003232 345.5117 14.6025 15.20935346 13729 TEVEL2-4 1 63213U 25052D 25163.49944250 .00010477 00000-0 48034-3 0 9994 2 63213 97.4326 57.4599 0003171 12.5505 347.5809 15.20632803 13692 TEVEL2-5 1 63214U 25052E 25163.69747874 .00010351 00000-0 47482-3 0 9997 2 63214 97.4323 57.6540 0003149 11.9731 348.1578 15.20618369 13722 TEVEL2-6 1 63215U 25052F 25163.43647024 .00010518 00000-0 48307-3 0 9998 2 63215 97.4329 57.3929 0003268 13.2336 346.8985 15.20572160 13685 TEVEL2-1 1 63217U 25052H 25162.92141706 .00008734 00000-0 40440-3 0 9996 2 63217 97.4302 56.8305 0003924 24.1850 335.9569 15.20341447 13602 TEVEL2-2 1 63218U 25052J 25162.65845256 .00008100 00000-0 37535-3 0 9996 2 63218 97.4302 56.5714 0004040 25.3576 334.7857 15.20336128 13564 TEVEL2-3 1 63219U 25052K 25162.92184737 .00008764 00000-0 40585-3 0 9992 2 63219 97.4305 56.8306 0003995 24.6557 335.4869 15.20336314 13600 TEVEL2-8 1 63237U 25052AD 25163.45024353 .00010575 00000-0 50570-3 0 9996 2 63237 97.4365 57.2681 0008558 18.8549 341.3001 15.19145677 13672 TEVEL2-9 1 63238U 25052AE 25163.65030889 .00010384 00000-0 49743-3 0 9998 2 63238 97.4367 57.4612 0008600 17.8850 342.2686 15.19090309 13707 TEVEL2-7 1 63239U 25052AF 25163.12535087 .00008246 00000-0 39634-3 0 9993 2 63239 97.4371 56.9389 0008706 19.7891 340.3680 15.19042169 13626 HYDRA-W 1 63490U 25052BL 25163.69876915 .00024490 00000-0 10290-2 0 9997 2 63490 97.4317 57.7943 0011826 13.4862 346.6689 15.23360978 13732 HADES-ICM (SO-125) 1 63492U 25052BN 25163.64889165 .00024003 00000-0 10215-2 0 9992 2 63492 97.4316 57.7140 0012301 16.3275 343.8356 15.22927695 13724 /EX
